User: anonymous   Login
Location: Unspecified
(0.0000°N, 0.0000°E)
Time: 21:54:35
(UTC+00:00)
Language:

TBA - TO BE ASSIGNED - Orbit

View from above orbital plane
View from above orbital plane
View from above satellite
View from above satellite

Ground track
Ground track

The orbit is defined by the following mean orbital elements,

1 68009U          26145.51717647 +.00000000 +00000-0 +78697-3 0 00002
2 68009  43.0018 335.0102 0002067 275.3195  84.7421 15.27591708    03
Epoch (UTC): 25 May 2026 12:24:44
Eccentricity: 0.0002067
inclination: 43.0018°
perigee height: 482 km
apogee height: 484 km
right ascension of ascending node: 335.0102°
argument of perigee: 275.3195°
revolutions per day: 15.27591708
mean anomaly at epoch: 84.7421°

The dashed part of the orbit path shows where the satellite is in the earth's shadow,  

DLR